User: anonymous   Login
Location: Mentone
(34.5413°N, 85.5351°W)
Time: 12:37:46
(UTC-06:00)
Language:

Cosmos 2150 Rocket - Orbit

View from above orbital plane
View from above orbital plane
View from above satellite
View from above satellite

Ground track
Ground track

The orbit data is extracted from the following two-line orbital elements,

1 21419U 91041B   14353.57668185  .00000481  00000-0  18126-3 0  6883
2 21419 074.0390 164.8495 0042098 313.3400 104.9796 14.33633970229969
Epoch (UTC): 19 December 2014 13:50:25
Eccentricity: 0.0042098
inclination: 74.0390°
perigee height: 749 km
apogee height: 810 km
right ascension of ascending node: 164.8495°
argument of perigee: 313.3400°
revolutions per day: 14.33633970
mean anomaly at epoch: 104.9796°
orbit number at epoch: 22996

The dashed part of the orbit path shows where the satellite is in the earth's shadow,  

DLR